QPF
0.00 0.00 0.00 0.00 0.00 0.01 0.01 0.00 0.00 0.01 0.01 0.01 0.01 0.02 0.01 0.01 0.02 0.03 0.02 0.03 0.02 0.01 0.01 0.01 0.01 0.01 0.03 0.05 0.03 0.02 0.02 0.03 0.03 0.03 0.02 0.01 0.01 0.01 0.01 0.01 0.00 0.00 0.00
0.00 0.00 0.00 0.00 0.00 0.00 0.00 0.00 0.01 0.01 0.00 0.00 0.00 0.01 0.01 0.02 0.02 0.02 0.02 0.03 0.03 0.02 0.01 0.01 0.00 0.01 0.02 0.04 0.04 0.03 0.03 0.02 0.02 0.02 0.02 0.01 0.01 0.01 0.01 0.00 0.00 0.00 0.00
0.00 0.00 0.00 0.00 0.00 0.00 0.01 0.01 0.01 0.01 0.00 0.00 0.01 0.01 0.01 0.02 0.02 0.02 0.02 0.02 0.03 0.03 0.03 0.02 0.01 0.01 0.02 0.02 0.02 0.03 0.03 0.03 0.03 0.02 0.02 0.01 0.01 0.01 0.01 0.00 0.00 0.00 0.00
0.01 0.00 0.00 0.01 0.01 0.01 0.01 0.01 0.00 0.01 0.01 0.01 0.01 0.01 0.02 0.01 0.01 0.01 0.03 0.02 0.02 0.02 0.02 0.03 0.02 0.02 0.03 0.03 0.03 0.03 0.03 0.03 0.03 0.02 0.01 0.01 0.01 0.01 0.00 0.00 0.00 0.00 0.00
0.01 0.01 0.01 0.01 0.01 0.01 0.01 0.01 0.01 0.01 0.01 0.01 0.01 0.01 0.02 0.02 0.02 0.02 0.02 0.03 0.03 0.03 0.03 0.03 0.03 0.04 0.05 0.05 0.04 0.02 0.02 0.02 0.03 0.02 0.01 0.01 0.01 0.01 0.01 0.00 0.00 0.00 0.01
0.01 0.01 0.01 0.01 0.01 0.01 0.01 0.01 0.02 0.02 0.02 0.01 0.01 0.01 0.01 0.02 0.03 0.03 0.03 0.03 0.04 0.05 0.06 0.04 0.03 0.04 0.04 0.05 0.03 0.02 0.03 0.03 0.03 0.02 0.01 0.01 0.01 0.00 0.01 0.01 0.01 0.01 0.02
0.01 0.01 0.01 0.01 0.01 0.01 0.01 0.02 0.02 0.02 0.02 0.02 0.02 0.01 0.01 0.02 0.03 0.03 0.04 0.04 0.05 0.07 0.06 0.04 0.03 0.02 0.02 0.02 0.02 0.02 0.02 0.02 0.02 0.03 0.02 0.02 0.01 0.01 0.01 0.01 0.01 0.01 0.01
0.01 0.01 0.01 0.00 0.00 0.01 0.01 0.01 0.02 0.02 0.02 0.02 0.01 0.01 0.01 0.02 0.02 0.03 0.04 0.03 0.04 0.05 0.04 0.04 0.03 0.03 0.02 0.03 0.02 0.02 0.01 0.01 0.01 0.02 0.02 0.02 0.01 0.02 0.02 0.01 0.01 0.01 0.01
0.01 0.01 0.01 0.01 0.01 0.01 0.01 0.01 0.02 0.02 0.02 0.02 0.01 0.01 0.01 0.01 0.01 0.02 0.03 0.03 0.03 0.03 0.02 0.03 0.03 0.03 0.03 0.04 0.03 0.02 0.02 0.01 0.01 0.02 0.02 0.03 0.03 0.03 0.02 0.02 0.01 0.01 0.01
0.02 0.03 0.02 0.02 0.01 0.01 0.02 0.02 0.02 0.02 0.02 0.02 0.02 0.02 0.02 0.01 0.01 0.02 0.03 0.03 0.04 0.03 0.02 0.02 0.02 0.02 0.03 0.03 0.03 0.03 0.02 0.02 0.01 0.02 0.02 0.02 0.02 0.02 0.02 0.01 0.01 0.02 0.02
0.02 0.02 0.02 0.02 0.02 0.02 0.02 0.02 0.02 0.03 0.04 0.03 0.03 0.02 0.02 0.01 0.01 0.02 0.04 0.03 0.04 0.03 0.01 0.01 0.02 0.03 0.02 0.02 0.02 0.02 0.02 0.03 0.03 0.03 0.03 0.02 0.02 0.01 0.01 0.01 0.01 0.02 0.02
0.02 0.02 0.02 0.02 0.01 0.01 0.02 0.03 0.03 0.03 0.04 0.04 0.04 0.03 0.02 0.02 0.02 0.03 0.04 0.05 0.05 0.04 0.01 0.01 0.01 0.03 0.03 0.02 0.01 0.01 0.02 0.03 0.02 0.02 0.02 0.02 0.02 0.02 0.02 0.02 0.02 0.02 0.02
0.01 0.02 0.01 0.01 0.01 0.02 0.02 0.04 0.04 0.04 0.04 0.04 0.04 0.04 0.02 0.02 0.02 0.03 0.04 0.05 0.05 0.04 0.02 0.02 0.02 0.03 0.03 0.02 0.01 0.01 0.01 0.02 0.02 0.02 0.03 0.02 0.02 0.02 0.02 0.02 0.01 0.01 0.01
0.01 0.01 0.02 0.01 0.01 0.02 0.03 0.04 0.04 0.04 0.04 0.04 0.04 0.03 0.03 0.02 0.02 0.02 0.02 0.03 0.03 0.03 0.02 0.02 0.03 0.04 0.03 0.02 0.02 0.01 0.01 0.01 0.01 0.02 0.02 0.02 0.02 0.01 0.02 0.02 0.01 0.01 0.01
0.01 0.01 0.02 0.02 0.02 0.02 0.03 0.03 0.03 0.03 0.03 0.04 0.03 0.03 0.02 0.02 0.02 0.02 0.02 0.03 0.02 0.02 0.02 0.02 0.02 0.03 0.03 0.02 0.02 0.02 0.02 0.02 0.02 0.02 0.02 0.02 0.02 0.02 0.02 0.02 0.02 0.02 0.01
0.01 0.01 0.02 0.03 0.03 0.03 0.03 0.03 0.04 0.04 0.04 0.04 0.05 0.05 0.03 0.03 0.03 0.02 0.02 0.03 0.03 0.03 0.02 0.02 0.02 0.02 0.02 0.02 0.02 0.03 0.03 0.03 0.03 0.03 0.03 0.03 0.03 0.02 0.01 0.01 0.02 0.02 0.01
0.01 0.01 0.01 0.02 0.03 0.04 0.04 0.04 0.04 0.03 0.04 0.04 0.04 0.05 0.05 0.05 0.05 0.04 0.04 0.03 0.03 0.03 0.02 0.02 0.02 0.02 0.02 0.02 0.03 0.03 0.03 0.03 0.04 0.05 0.05 0.05 0.04 0.03 0.02 0.01 0.01 0.01 0.01
0.02 0.02 0.02 0.02 0.03 0.04 0.06 0.06 0.04 0.03 0.03 0.03 0.03 0.04 0.04 0.04 0.05 0.05 0.05 0.04 0.03 0.02 0.02 0.02 0.02 0.02 0.02 0.02 0.02 0.02 0.02 0.02 0.03 0.04 0.04 0.05 0.05 0.04 0.04 0.03 0.03 0.03 0.02
0.02 0.02 0.03 0.03 0.03 0.03 0.05 0.08 0.06 0.04 0.05 0.04 0.03 0.03 0.04 0.04 0.04 0.04 0.04 0.03 0.02 0.02 0.01 0.01 0.01 0.02 0.02 0.02 0.02 0.02 0.02 0.02 0.03 0.04 0.04 0.04 0.04 0.04 0.04 0.04 0.04 0.04 0.04
0.02 0.02 0.03 0.04 0.04 0.03 0.04 0.06 0.07 0.05 0.04 0.05 0.05 0.04 0.04 0.05 0.04 0.04 0.04 0.03 0.02 0.02 0.02 0.01 0.01 0.01 0.01 0.02 0.03 0.03 0.03 0.03 0.03 0.04 0.03 0.04 0.05 0.05 0.05 0.05 0.05 0.05 0.04
0.02 0.03 0.03 0.04 0.04 0.03 0.03 0.03 0.04 0.05 0.05 0.04 0.04 0.05 0.05 0.04 0.05 0.05 0.05 0.05 0.06 0.05 0.04 0.03 0.03 0.02 0.02 0.02 0.03 0.04 0.05 0.06 0.04 0.04 0.04 0.04 0.04 0.04 0.05 0.06 0.06 0.05 0.04
0.03 0.04 0.04 0.04 0.05 0.03 0.02 0.02 0.02 0.02 0.04 0.05 0.05 0.05 0.06 0.05 0.05 0.06 0.08 0.09 0.08 0.08 0.08 0.08 0.07 0.06 0.05 0.04 0.04 0.04 0.04 0.06 0.07 0.06 0.06 0.04 0.04 0.03 0.04 0.04 0.05 0.05 0.04
0.02 0.03 0.02 0.03 0.05 0.03 0.01 0.01 0.01 0.01 0.02 0.03 0.04 0.05 0.05 0.05 0.04 0.03 0.05 0.07 0.08 0.08 0.07 0.08 0.09 0.09 0.08 0.08 0.07 0.06 0.05 0.05 0.06 0.06 0.06 0.05 0.04 0.03 0.03 0.04 0.04 0.04 0.04
0.02 0.02 0.02 0.02 0.04 0.05 0.02 0.01 0.01 0.01 0.02 0.02 0.03 0.04 0.04 0.04 0.03 0.02 0.02 0.04 0.05 0.05 0.06 0.05 0.05 0.06 0.07 0.08 0.10 0.10 0.08 0.05 0.05 0.05 0.04 0.04 0.03 0.03 0.03 0.03 0.04 0.04 0.04
0.03 0.03 0.04 0.04 0.05 0.07 0.05 0.03 0.02 0.02 0.02 0.02 0.02 0.03 0.04 0.05 0.04 0.04 0.03 0.03 0.03 0.04 0.04 0.04 0.04 0.04 0.04 0.06 0.07 0.08 0.09 0.07 0.06 0.04 0.04 0.03 0.03 0.02 0.02 0.02 0.02 0.03 0.03
0.03 0.03 0.03 0.04 0.05 0.07 0.08 0.06 0.04 0.03 0.04 0.03 0.03 0.03 0.04 0.05 0.06 0.05 0.04 0.04 0.03 0.03 0.03 0.03 0.02 0.02 0.02 0.03 0.04 0.05 0.05 0.05 0.04 0.03 0.03 0.03 0.03 0.03 0.03 0.03 0.03 0.03 0.03
MSLP
1012.91 1013.45 1013.95 1014.39 1014.78 1015.10 1015.38 1015.62 1015.82 1016.00 1016.15 1016.26 1016.32 1016.32 1016.26 1016.13 1015.96 1015.75 1015.53 1015.33 1015.17 1015.06 1014.99 1014.96 1014.93 1014.89 1014.80 1014.63 1014.39 1014.06 1013.65 1013.17 1012.64 1012.08 1011.50 1010.92 1010.35 1009.79 1009.24 1008.72 1008.21 1007.73 1007.27
1013.25 1013.81 1014.32 1014.78 1015.19 1015.53 1015.82 1016.08 1016.31 1016.51 1016.68 1016.82 1016.90 1016.91 1016.86 1016.74 1016.56 1016.33 1016.10 1015.87 1015.67 1015.51 1015.39 1015.30 1015.22 1015.13 1015.00 1014.81 1014.54 1014.20 1013.79 1013.32 1012.80 1012.25 1011.68 1011.09 1010.50 1009.91 1009.32 1008.73 1008.15 1007.59 1007.05
1013.63 1014.20 1014.72 1015.19 1015.60 1015.95 1016.26 1016.53 1016.77 1016.99 1017.17 1017.32 1017.42 1017.45 1017.41 1017.30 1017.13 1016.91 1016.66 1016.41 1016.18 1015.97 1015.79 1015.63 1015.48 1015.31 1015.12 1014.87 1014.57 1014.20 1013.78 1013.30 1012.79 1012.23 1011.65 1011.06 1010.44 1009.82 1009.18 1008.54 1007.91 1007.28 1006.68
1014.02 1014.60 1015.12 1015.60 1016.00 1016.36 1016.66 1016.93 1017.18 1017.39 1017.58 1017.74 1017.84 1017.89 1017.87 1017.78 1017.63 1017.42 1017.18 1016.92 1016.65 1016.40 1016.15 1015.92 1015.69 1015.45 1015.18 1014.87 1014.52 1014.12 1013.67 1013.18 1012.65 1012.09 1011.49 1010.88 1010.24 1009.58 1008.90 1008.21 1007.53 1006.85 1006.20
1014.40 1014.98 1015.50 1015.97 1016.37 1016.71 1017.01 1017.26 1017.49 1017.70 1017.88 1018.03 1018.14 1018.21 1018.21 1018.15 1018.02 1017.84 1017.60 1017.34 1017.06 1016.76 1016.47 1016.17 1015.86 1015.54 1015.20 1014.84 1014.43 1014.00 1013.52 1013.01 1012.47 1011.89 1011.28 1010.63 1009.96 1009.26 1008.54 1007.81 1007.08 1006.37 1005.68
1014.73 1015.31 1015.83 1016.29 1016.68 1017.00 1017.28 1017.51 1017.72 1017.90 1018.07 1018.21 1018.33 1018.40 1018.42 1018.38 1018.29 1018.13 1017.92 1017.66 1017.37 1017.05 1016.72 1016.36 1016.00 1015.61 1015.22 1014.80 1014.35 1013.88 1013.39 1012.86 1012.30 1011.70 1011.06 1010.39 1009.67 1008.93 1008.16 1007.39 1006.62 1005.88 1005.18
1014.99 1015.57 1016.09 1016.54 1016.91 1017.22 1017.47 1017.68 1017.87 1018.03 1018.18 1018.31 1018.42 1018.50 1018.54 1018.53 1018.46 1018.32 1018.13 1017.89 1017.59 1017.26 1016.89 1016.50 1016.09 1015.67 1015.23 1014.77 1014.30 1013.81 1013.30 1012.76 1012.18 1011.56 1010.90 1010.18 1009.43 1008.64 1007.82 1007.01 1006.21 1005.44 1004.73
1015.16 1015.75 1016.28 1016.72 1017.09 1017.39 1017.63 1017.82 1017.99 1018.13 1018.27 1018.39 1018.50 1018.58 1018.63 1018.63 1018.58 1018.46 1018.29 1018.05 1017.76 1017.41 1017.02 1016.61 1016.17 1015.71 1015.25 1014.77 1014.29 1013.79 1013.27 1012.72 1012.13 1011.49 1010.80 1010.04 1009.24 1008.40 1007.54 1006.69 1005.85 1005.07 1004.34
1015.24 1015.85 1016.39 1016.85 1017.23 1017.54 1017.78 1017.98 1018.14 1018.28 1018.41 1018.52 1018.63 1018.71 1018.76 1018.76 1018.72 1018.61 1018.44 1018.20 1017.90 1017.54 1017.14 1016.70 1016.24 1015.77 1015.29 1014.81 1014.32 1013.83 1013.31 1012.75 1012.15 1011.49 1010.76 1009.97 1009.13 1008.24 1007.34 1006.44 1005.57 1004.76 1004.03
1015.26 1015.90 1016.47 1016.96 1017.36 1017.70 1017.96 1018.18 1018.36 1018.52 1018.65 1018.77 1018.87 1018.94 1018.99 1018.98 1018.93 1018.82 1018.64 1018.38 1018.07 1017.69 1017.27 1016.82 1016.35 1015.87 1015.38 1014.90 1014.41 1013.92 1013.40 1012.84 1012.23 1011.55 1010.80 1009.97 1009.08 1008.16 1007.21 1006.27 1005.38 1004.54 1003.78
1015.26 1015.93 1016.54 1017.07 1017.52 1017.90 1018.21 1018.47 1018.69 1018.87 1019.02 1019.14 1019.24 1019.31 1019.34 1019.32 1019.25 1019.11 1018.91 1018.63 1018.29 1017.90 1017.46 1016.99 1016.51 1016.02 1015.53 1015.05 1014.57 1014.07 1013.56 1013.00 1012.37 1011.68 1010.90 1010.05 1009.13 1008.16 1007.18 1006.22 1005.29 1004.43 1003.64
1015.26 1015.97 1016.61 1017.19 1017.70 1018.14 1018.52 1018.84 1019.10 1019.32 1019.49 1019.63 1019.73 1019.79 1019.80 1019.76 1019.66 1019.49 1019.25 1018.95 1018.59 1018.17 1017.71 1017.23 1016.74 1016.24 1015.76 1015.28 1014.80 1014.31 1013.80 1013.23 1012.60 1011.89 1011.10 1010.23 1009.28 1008.30 1007.29 1006.30 1005.35 1004.47 1003.66
1015.28 1016.02 1016.71 1017.34 1017.91 1018.41 1018.86 1019.24 1019.56 1019.82 1020.02 1020.17 1020.28 1020.32 1020.32 1020.25 1020.11 1019.92 1019.65 1019.32 1018.94 1018.50 1018.04 1017.55 1017.06 1016.57 1016.08 1015.61 1015.14 1014.65 1014.14 1013.57 1012.94 1012.22 1011.42 1010.54 1009.59 1008.59 1007.58 1006.58 1005.62 1004.71 1003.88
1015.33 1016.09 1016.81 1017.48 1018.11 1018.68 1019.18 1019.62 1019.98 1020.28 1020.52 1020.69 1020.79 1020.83 1020.81 1020.72 1020.56 1020.34 1020.06 1019.72 1019.33 1018.89 1018.43 1017.95 1017.47 1016.99 1016.52 1016.06 1015.59 1015.11 1014.60 1014.04 1013.40 1012.69 1011.89 1011.02 1010.07 1009.08 1008.08 1007.08 1006.12 1005.22 1004.38
1015.39 1016.15 1016.89 1017.60 1018.27 1018.88 1019.43 1019.91 1020.32 1020.65 1020.91 1021.09 1021.20 1021.24 1021.21 1021.11 1020.95 1020.73 1020.45 1020.11 1019.73 1019.32 1018.88 1018.43 1017.97 1017.52 1017.07 1016.63 1016.18 1015.71 1015.20 1014.64 1014.01 1013.31 1012.53 1011.67 1010.74 1009.78 1008.81 1007.84 1006.90 1006.01 1005.17
1015.44 1016.20 1016.94 1017.66 1018.35 1018.99 1019.56 1020.07 1020.51 1020.86 1021.14 1021.33 1021.45 1021.49 1021.47 1021.39 1021.24 1021.04 1020.79 1020.49 1020.15 1019.78 1019.39 1018.98 1018.57 1018.15 1017.74 1017.31 1016.88 1016.42 1015.92 1015.37 1014.75 1014.06 1013.30 1012.47 1011.59 1010.67 1009.74 1008.81 1007.92 1007.06 1006.25
1015.47 1016.21 1016.94 1017.66 1018.34 1018.99 1019.57 1020.09 1020.53 1020.90 1021.19 1021.40 1021.53 1021.60 1021.60 1021.55 1021.44 1021.28 1021.08 1020.84 1020.57 1020.26 1019.94 1019.59 1019.23 1018.86 1018.48 1018.08 1017.66 1017.21 1016.72 1016.18 1015.57 1014.90 1014.17 1013.37 1012.54 1011.68 1010.80 1009.94 1009.11 1008.31 1007.56
1015.46 1016.18 1016.89 1017.59 1018.26 1018.89 1019.47 1019.98 1020.43 1020.80 1021.10 1021.33 1021.49 1021.59 1021.64 1021.63 1021.58 1021.49 1021.36 1021.20 1021.00 1020.78 1020.52 1020.24 1019.94 1019.62 1019.27 1018.89 1018.49 1018.04 1017.56 1017.02 1016.42 1015.76 1015.06 1014.31 1013.52 1012.73 1011.93 1011.15 1010.39 1009.67 1009.00
1015.43 1016.12 1016.80 1017.48 1018.12 1018.73 1019.29 1019.79 1020.24 1020.61 1020.93 1021.18 1021.37 1021.52 1021.62 1021.68 1021.70 1021.69 1021.64 1021.56 1021.45 1021.30 1021.12 1020.90 1020.65 1020.37 1020.05 1019.69 1019.29 1018.85 1018.36 1017.81 1017.22 1016.59 1015.91 1015.20 1014.47 1013.74 1013.03 1012.33 1011.67 1011.04 1010.46
1015.38 1016.04 1016.70 1017.34 1017.96 1018.54 1019.08 1019.57 1020.01 1020.39 1020.72 1021.00 1021.24 1021.43 1021.59 1021.72 1021.82 1021.88 1021.92 1021.92 1021.88 1021.81 1021.69 1021.53 1021.32 1021.07 1020.77 1020.42 1020.02 1019.57 1019.07 1018.52 1017.94 1017.32 1016.66 1016.00 1015.33 1014.67 1014.04 1013.44 1012.87 1012.35 1011.86
1015.32 1015.96 1016.60 1017.22 1017.80 1018.36 1018.88 1019.35 1019.79 1020.17 1020.52 1020.83 1021.11 1021.36 1021.58 1021.77 1021.94 1022.07 1022.18 1022.24 1022.27 1022.25 1022.18 1022.06 1021.89 1021.65 1021.37 1021.02 1020.62 1020.16 1019.66 1019.12 1018.53 1017.93 1017.31 1016.69 1016.08 1015.50 1014.95 1014.43 1013.97 1013.54 1013.16
1015.24 1015.88 1016.49 1017.09 1017.65 1018.18 1018.68 1019.15 1019.57 1019.97 1020.34 1020.68 1020.99 1021.28 1021.55 1021.80 1022.02 1022.21 1022.37 1022.49 1022.56 1022.58 1022.55 1022.46 1022.30 1022.09 1021.81 1021.47 1021.07 1020.62 1020.12 1019.58 1019.02 1018.44 1017.86 1017.29 1016.74 1016.23 1015.76 1015.34 1014.96 1014.63 1014.35
1015.13 1015.76 1016.36 1016.93 1017.48 1017.99 1018.48 1018.93 1019.35 1019.75 1020.13 1020.49 1020.83 1021.16 1021.47 1021.75 1022.01 1022.24 1022.44 1022.59 1022.69 1022.74 1022.73 1022.66 1022.53 1022.33 1022.07 1021.75 1021.36 1020.93 1020.46 1019.95 1019.42 1018.88 1018.35 1017.84 1017.36 1016.92 1016.53 1016.19 1015.90 1015.66 1015.45
1014.95 1015.57 1016.16 1016.72 1017.25 1017.75 1018.21 1018.66 1019.08 1019.48 1019.86 1020.24 1020.59 1020.94 1021.27 1021.58 1021.87 1022.12 1022.34 1022.51 1022.64 1022.71 1022.72 1022.67 1022.57 1022.40 1022.17 1021.88 1021.54 1021.15 1020.72 1020.26 1019.78 1019.31 1018.84 1018.39 1017.98 1017.62 1017.30 1017.04 1016.83 1016.66 1016.53
1014.68 1015.28 1015.86 1016.41 1016.92 1017.40 1017.86 1018.29 1018.70 1019.10 1019.48 1019.86 1020.23 1020.59 1020.93 1021.25 1021.55 1021.82 1022.05 1022.24 1022.38 1022.48 1022.52 1022.51 1022.44 1022.32 1022.14 1021.91 1021.63 1021.30 1020.94 1020.56 1020.16 1019.75 1019.36 1018.99 1018.65 1018.36 1018.12 1017.92 1017.78 1017.67 1017.60
1014.29 1014.88 1015.45 1015.98 1016.48 1016.95 1017.39 1017.80 1018.21 1018.60 1018.98 1019.36 1019.73 1020.09 1020.44 1020.77 1021.08 1021.36 1021.60 1021.81 1021.97 1022.10 1022.18 1022.21 1022.20 1022.14 1022.03 1021.88 1021.68 1021.44 1021.17 1020.87 1020.56 1020.24 1019.92 1019.63 1019.37 1019.15 1018.97 1018.84 1018.75 1018.70 1018.67
Thickness
5699 5697 5695 5693 5691 5689 5686 5685 5684 5682 5681 5679 5676 5674 5672 5669 5667 5665 5663 5662 5660 5659 5659 5659 5658 5658 5657 5657 5656 5655 5653 5650 5644 5645 5647 5647 5646 5645 5643 5642 5642 5641 5640
5694 5692 5690 5688 5686 5684 5682 5681 5679 5677 5676 5674 5672 5670 5668 5666 5664 5661 5659 5658 5656 5655 5655 5654 5654 5654 5652 5652 5651 5649 5648 5647 5643 5639 5640 5640 5640 5640 5639 5638 5637 5636 5636
5688 5686 5684 5682 5680 5678 5676 5675 5674 5672 5670 5669 5667 5665 5663 5661 5659 5657 5656 5654 5653 5652 5652 5650 5650 5649 5647 5647 5646 5645 5644 5644 5641 5636 5634 5635 5635 5635 5633 5633 5633 5632 5632
5682 5679 5677 5676 5674 5672 5671 5669 5667 5666 5664 5662 5661 5659 5658 5656 5654 5653 5651 5650 5650 5649 5649 5647 5646 5646 5644 5643 5642 5640 5639 5637 5635 5632 5630 5629 5628 5629 5627 5626 5625 5626 5626
5675 5672 5671 5670 5669 5666 5664 5662 5660 5659 5657 5656 5654 5653 5651 5650 5649 5647 5646 5645 5645 5644 5644 5643 5643 5643 5642 5640 5639 5636 5634 5631 5629 5627 5624 5623 5622 5621 5619 5620 5619 5619 5620
5668 5665 5664 5663 5661 5658 5656 5654 5652 5650 5649 5648 5646 5645 5643 5643 5643 5642 5640 5640 5640 5639 5638 5638 5639 5638 5637 5636 5634 5633 5631 5628 5625 5622 5620 5618 5617 5617 5616 5615 5613 5612 5611
5660 5658 5656 5655 5652 5650 5648 5646 5644 5642 5641 5639 5638 5637 5635 5633 5634 5634 5634 5634 5633 5634 5633 5633 5634 5634 5632 5630 5629 5628 5626 5625 5624 5620 5617 5616 5614 5613 5611 5609 5608 5607 5607
5653 5650 5649 5646 5644 5642 5639 5637 5635 5635 5633 5630 5629 5628 5627 5627 5627 5626 5626 5626 5627 5627 5628 5627 5627 5626 5627 5625 5623 5622 5620 5620 5619 5617 5616 5615 5613 5611 5609 5606 5604 5604 5604
5645 5643 5641 5638 5636 5633 5630 5628 5627 5625 5624 5622 5621 5620 5618 5618 5618 5619 5618 5617 5618 5620 5621 5622 5622 5620 5621 5620 5617 5615 5614 5613 5614 5613 5612 5610 5608 5606 5604 5600 5598 5595 5594
5637 5635 5633 5631 5628 5625 5623 5621 5619 5617 5616 5615 5613 5612 5611 5609 5610 5610 5610 5610 5610 5612 5613 5614 5615 5614 5614 5613 5611 5608 5606 5605 5605 5605 5604 5603 5601 5600 5598 5595 5593 5590 5588
5631 5628 5625 5622 5620 5618 5616 5614 5611 5610 5608 5606 5605 5605 5604 5603 5602 5602 5602 5602 5603 5604 5605 5605 5606 5606 5605 5605 5604 5602 5600 5599 5598 5597 5596 5594 5593 5592 5591 5589 5588 5586 5583
5623 5619 5617 5614 5612 5611 5608 5606 5604 5602 5599 5598 5596 5596 5596 5596 5595 5594 5595 5596 5596 5596 5596 5597 5597 5598 5597 5596 5595 5594 5594 5592 5590 5588 5587 5586 5584 5583 5583 5582 5581 5580 5579
5613 5609 5607 5606 5604 5602 5599 5597 5595 5593 5591 5590 5589 5588 5588 5588 5587 5587 5587 5587 5588 5587 5587 5588 5588 5588 5587 5586 5586 5586 5585 5583 5581 5579 5578 5576 5576 5576 5575 5574 5573 5572 5571
5603 5601 5599 5597 5595 5593 5591 5589 5586 5584 5583 5583 5582 5580 5580 5580 5579 5579 5579 5578 5578 5577 5577 5578 5579 5578 5578 5577 5577 5576 5576 5574 5573 5571 5570 5568 5568 5566 5565 5564 5563 5562 5560
5594 5592 5589 5587 5585 5583 5581 5579 5578 5577 5577 5576 5575 5575 5573 5572 5573 5573 5571 5571 5570 5569 5569 5568 5568 5568 5568 5568 5567 5567 5566 5565 5564 5562 5561 5560 5558 5557 5555 5554 5553 5552 5550
5585 5583 5580 5578 5575 5573 5571 5570 5570 5570 5570 5570 5569 5568 5568 5567 5566 5566 5565 5564 5563 5562 5560 5559 5559 5559 5559 5559 5558 5558 5557 5556 5555 5554 5552 5551 5550 5548 5547 5546 5545 5543 5541
5577 5575 5572 5570 5568 5566 5565 5563 5561 5561 5561 5561 5561 5560 5559 5559 5558 5557 5557 5556 5555 5554 5551 5551 5550 5550 5550 5550 5550 5549 5548 5547 5546 5544 5543 5542 5541 5540 5538 5537 5535 5534 5532
5568 5566 5564 5562 5560 5559 5558 5557 5556 5554 5552 5550 5551 5551 5550 5550 5549 5549 5548 5547 5545 5544 5543 5542 5542 5542 5541 5541 5541 5540 5539 5537 5536 5535 5533 5532 5532 5531 5530 5528 5526 5525 5523
5557 5555 5554 5552 5551 5550 5550 5549 5548 5547 5545 5543 5541 5541 5541 5540 5539 5539 5538 5537 5536 5535 5535 5534 5534 5533 5533 5533 5532 5531 5530 5528 5527 5526 5524 5523 5522 5521 5520 5519 5517 5516 5515
5547 5546 5544 5542 5542 5541 5540 5539 5539 5537 5536 5534 5532 5531 5530 5529 5529 5528 5528 5527 5527 5527 5527 5526 5525 5525 5524 5524 5523 5522 5521 5519 5518 5517 5515 5514 5512 5511 5510 5509 5507 5506 5505
5536 5535 5535 5533 5532 5532 5531 5530 5529 5528 5527 5525 5524 5523 5522 5521 5520 5520 5519 5518 5518 5518 5518 5518 5517 5516 5515 5514 5513 5512 5512 5510 5509 5508 5506 5504 5503 5501 5500 5499 5498 5497 5496
5525 5525 5524 5524 5523 5522 5522 5521 5520 5519 5518 5517 5515 5514 5514 5512 5511 5510 5510 5510 5509 5509 5510 5509 5508 5506 5506 5504 5504 5503 5502 5501 5500 5499 5497 5495 5493 5492 5491 5489 5489 5488 5487
5514 5514 5514 5514 5514 5513 5513 5513 5512 5511 5510 5509 5508 5506 5504 5502 5501 5501 5501 5500 5500 5499 5499 5499 5498 5497 5496 5495 5494 5493 5493 5492 5491 5490 5488 5486 5484 5483 5482 5480 5479 5478 5477
5503 5503 5503 5503 5504 5503 5503 5504 5503 5503 5501 5500 5499 5496 5495 5493 5492 5492 5491 5491 5490 5489 5489 5489 5488 5487 5486 5485 5484 5483 5483 5482 5481 5480 5479 5477 5475 5474 5473 5471 5470 5469 5468
5492 5492 5492 5493 5493 5494 5493 5494 5494 5493 5492 5490 5489 5487 5486 5484 5483 5482 5481 5481 5480 5480 5479 5479 5478 5477 5476 5475 5474 5473 5472 5471 5470 5469 5468 5467 5466 5465 5464 5463 5462 5461 5460
5482 5482 5482 5482 5483 5484 5484 5484 5484 5484 5483 5481 5479 5478 5477 5475 5474 5473 5472 5471 5470 5470 5469 5469 5468 5467 5466 5464 5463 5462 5462 5461 5460 5459 5459 5457 5456 5456 5455 5454 5453 5452 5451